Franklin, NC

4:29 PM EDT on June 26, 2017 (GMT -0400)
Franklin

Weather History for K1A5 - November, 2013

Change the Weather History Date:

Thursday, November 28, 2013

  Actual Average (KTOC) Record (KTOC)
Temperature  
Mean Temperature 31 °F -  
Max Temperature 48 °F 60 °F 70 °F (2015)
Min Temperature 15 °F 42 °F 24 °F (2013)
Degree Days  
Heating Degree Days 34    
Moisture  
Dew Point 18 °F    
Average Humidity 74    
Maximum Humidity 92    
Minimum Humidity 30    
Precipitation  
Precipitation 0.00 in - - ()
Sea Level Pressure  
Sea Level Pressure 30.35 in    
Wind  
Wind Speed 1 mph (West)    
Max Wind Speed 5 mph    
Max Gust Speed -    
Visibility 10 miles    
Events      
Averages and records for this station are not official NWS values.
T = Trace of Precipitation, MM = Missing Value Source: NWS Daily Summary

Daily Weather History Graph

Daily Weather History Graph

Search for Another Location

Airport or City:

Trip Planner

Search our weather history database for the weather conditions in past years. The results will help you decide how hot, cold, wet, or windy it might be!

Date:

Astronomy

Nov. 28, 2013 Rise Set
Actual Time 7:21 AM EST 5:21 PM EST
Civil Twilight 6:53 AM EST 5:49 PM EST
Nautical Twilight 6:22 AM EST 6:20 PM EST
Astronomical Twilight 5:51 AM EST 6:51 PM EST
Moon 2:32 AM EST (11/28) 2:22 PM EST (11/28)
Length of Visible Light 10h 56m
Length of Day
10h 00m
Waning Crescent, 22% of the Moon is Illuminated
Nov 28
Waning Crescent
Dec 2
New
Dec 9
First Quarter
Dec 17
Full
Dec 25
Last Quarter

Hourly Weather History & Observations

Time (EST) Temp. Windchill Dew Point Humidity Pressure Visibility Wind Dir Wind Speed Gust Speed Precip Events Conditions
12:15 AM 23.0 °F 18.4 °F 12.7 °F 65% 30.20 in 10.0 mi NNW 3.5 mph - N/A   Clear
12:35 AM 22.8 °F 18.2 °F 12.9 °F 66% 30.20 in 10.0 mi NW 3.5 mph - N/A   Clear
12:55 AM 21.2 °F - 15.3 °F 78% 30.20 in 10.0 mi Calm Calm - N/A   Clear
1:15 AM 21.9 °F 15.7 °F 13.1 °F 69% 30.21 in 10.0 mi North 4.6 mph - N/A   Clear
1:35 AM 20.5 °F - 14.4 °F 77% 30.21 in 10.0 mi Calm Calm - N/A   Clear
1:55 AM 19.2 °F - 14.7 °F 83% 30.23 in 10.0 mi Calm Calm - N/A   Clear
2:15 AM 18.7 °F - 15.6 °F 88% 30.23 in 10.0 mi Calm Calm - N/A   Clear
2:35 AM 17.6 °F - 14.2 °F 86% 30.24 in 10.0 mi Calm Calm - N/A   Clear
2:55 AM 17.6 °F - 14.4 °F 87% 30.27 in 10.0 mi Calm Calm - N/A   Clear
3:15 AM 17.8 °F - 14.5 °F 87% 30.28 in 10.0 mi Calm Calm - N/A   Clear
3:35 AM 16.9 °F - 14.0 °F 88% 30.28 in 10.0 mi Calm Calm - N/A   Clear
3:55 AM 16.5 °F - 14.0 °F 90% 30.29 in 10.0 mi Calm Calm - N/A   Clear
4:15 AM 16.7 °F - 14.0 °F 89% 30.29 in 10.0 mi Calm Calm - N/A   Clear
4:35 AM 16.3 °F - 13.6 °F 89% 30.29 in 10.0 mi Calm Calm - N/A   Clear
4:55 AM 16.5 °F - 14.0 °F 90% 30.30 in 10.0 mi Calm Calm - N/A   Clear
5:15 AM 15.8 °F - 13.3 °F 90% 30.31 in 10.0 mi Calm Calm - N/A   Clear
5:35 AM 16.0 °F - 13.5 °F 90% 30.31 in 10.0 mi Calm Calm - N/A   Clear
5:55 AM 16.2 °F - 13.6 °F 90% 30.32 in 10.0 mi Calm Calm - N/A   Clear
6:15 AM 15.6 °F - 12.9 °F 89% 30.32 in 10.0 mi Calm Calm - N/A   Clear
6:35 AM 15.8 °F - 13.1 °F 89% 30.33 in 10.0 mi Calm Calm - N/A   Clear
6:55 AM 15.6 °F - 13.1 °F 90% 30.34 in 10.0 mi Calm Calm - N/A   Clear
7:15 AM 15.3 °F - 12.6 °F 89% 30.35 in 10.0 mi Calm Calm - N/A   Clear
7:35 AM 15.4 °F - 12.7 °F 89% 30.35 in 10.0 mi Calm Calm - N/A   Clear
7:55 AM 15.8 °F - 13.1 °F 89% 30.36 in 10.0 mi Calm Calm - N/A   Clear
8:15 AM 17.2 °F - 14.4 °F 88% 30.37 in 10.0 mi Calm Calm - N/A   Clear
8:35 AM 18.3 °F - 15.6 °F 89% 30.38 in 10.0 mi Calm Calm - N/A   Clear
8:55 AM 20.8 °F - 16.3 °F 83% 30.39 in 10.0 mi Calm Calm - N/A   Clear
9:15 AM 22.3 °F - 17.2 °F 81% 30.39 in 10.0 mi Calm Calm - N/A   Clear
9:35 AM 23.9 °F - 17.1 °F 75% 30.40 in 10.0 mi Calm Calm - N/A   Clear
9:55 AM 25.3 °F - 18.0 °F 74% 30.40 in 10.0 mi Calm Calm - N/A   Clear
10:15 AM 26.6 °F - 17.4 °F 68% 30.40 in 10.0 mi Calm Calm - N/A   Clear
10:35 AM 28.8 °F - 18.5 °F 66% 30.40 in 10.0 mi Calm Calm - N/A   Clear
10:55 AM 30.7 °F - 17.8 °F 59% 30.40 in 10.0 mi Calm Calm - N/A   Clear
11:15 AM 31.8 °F - 19.4 °F 60% 30.39 in 10.0 mi Calm Calm - N/A   Clear
11:35 AM 32.9 °F - 18.9 °F 56% 30.39 in 10.0 mi Calm Calm - N/A   Clear
11:55 AM 34.7 °F - 19.2 °F 53% 30.38 in 10.0 mi Calm Calm - N/A   Clear
12:15 PM 36.1 °F - 18.1 °F 48% 30.37 in 10.0 mi Calm Calm - N/A   Clear
12:35 PM 37.8 °F - 19.9 °F 49% 30.35 in 10.0 mi Calm Calm - N/A   Clear
12:55 PM 38.5 °F - 19.6 °F 47% 30.35 in 10.0 mi Calm Calm - N/A   Clear
1:15 PM 40.6 °F 38.6 °F 19.6 °F 43% 30.34 in 10.0 mi ENE 3.5 mph - N/A   Clear
1:35 PM 42.1 °F - 20.1 °F 42% 30.33 in 10.0 mi Calm Calm - N/A   Clear
1:55 PM 43.5 °F - 21.2 °F 41% 30.33 in 10.0 mi Calm Calm - N/A   Clear
2:15 PM 44.6 °F - 20.1 °F 38% 30.33 in 10.0 mi Calm Calm - N/A   Clear
2:35 PM 45.1 °F - 19.4 °F 36% 30.32 in 10.0 mi Calm Calm - N/A   Clear
2:55 PM 46.4 °F 45.2 °F 18.1 °F 32% 30.32 in 10.0 mi SW 3.5 mph - N/A   Clear
3:15 PM 46.4 °F - 16.3 °F 30% 30.32 in 10.0 mi Calm Calm - N/A   Clear
3:35 PM 47.7 °F - 17.8 °F 30% 30.32 in 10.0 mi Calm Calm - N/A   Clear
3:55 PM 47.7 °F - 18.0 °F 31% 30.33 in 10.0 mi Calm Calm - N/A   Clear
4:15 PM 46.9 °F - 16.9 °F 30% 30.33 in 10.0 mi Calm Calm - N/A   Clear
4:35 PM 41.7 °F 38.8 °F 26.8 °F 55% 30.34 in 10.0 mi WSW 4.6 mph - N/A   Clear
4:55 PM 39.7 °F 36.5 °F 25.7 °F 57% 30.35 in 10.0 mi SW 4.6 mph - N/A   Clear
5:15 PM 35.4 °F 31.5 °F 26.8 °F 71% 30.36 in 10.0 mi WSW 4.6 mph - N/A   Clear
5:35 PM 32.4 °F - 26.8 °F 80% 30.37 in 10.0 mi Calm Calm - N/A   Clear
5:55 PM 30.2 °F - 26.4 °F 86% 30.38 in 10.0 mi Calm Calm - N/A   Clear
6:15 PM 30.0 °F - 27.0 °F 88% 30.39 in 10.0 mi Calm Calm - N/A   Clear
6:35 PM 29.5 °F - 26.4 °F 88% 30.39 in 10.0 mi Calm Calm - N/A   Clear
6:55 PM 28.8 °F - 25.7 °F 88% 30.39 in 10.0 mi Calm Calm - N/A   Clear
7:15 PM 27.7 °F - 24.6 °F 88% 30.40 in 10.0 mi Calm Calm - N/A   Clear
7:35 PM 27.9 °F - 24.6 °F 88% 30.41 in 10.0 mi Calm Calm - N/A   Clear
7:55 PM 27.3 °F - 24.4 °F 89% 30.42 in 10.0 mi Calm Calm - N/A   Clear
8:15 PM 26.8 °F - 23.9 °F 89% 30.42 in 10.0 mi Calm Calm - N/A   Clear
8:35 PM 25.7 °F - 23.2 °F 90% 30.42 in 10.0 mi Calm Calm - N/A   Clear
8:55 PM 25.3 °F - 22.6 °F 89% 30.44 in 10.0 mi Calm Calm - N/A   Clear
9:15 PM 26.1 °F - 23.9 °F 92% 30.44 in 10.0 mi Calm Calm - N/A   Clear
9:35 PM 23.2 °F - 20.7 °F 90% 30.44 in 10.0 mi Calm Calm - N/A   Clear
9:55 PM 24.3 °F - 22.1 °F 91% 30.44 in 10.0 mi Calm Calm - N/A   Clear
10:15 PM 22.8 °F - 20.3 °F 90% 30.45 in 10.0 mi Calm Calm - N/A   Clear
10:35 PM 23.2 °F - 20.8 °F 91% 30.45 in 10.0 mi Calm Calm - N/A   Clear
10:55 PM 22.8 °F - 20.7 °F 91% 30.45 in 10.0 mi Calm Calm - N/A   Clear
11:15 PM 22.8 °F - 20.5 °F 91% 30.46 in 10.0 mi Calm Calm - N/A   Clear
11:35 PM 23.0 °F - 20.8 °F 91% 30.46 in 10.0 mi Calm Calm - N/A   Clear
11:55 PM 21.6 °F - 19.2 °F 91% 30.46 in 10.0 mi Calm Calm - N/A   Clear